Flag for Spain

Past Weather in Palma, Majorca, Spain — Yesterday and Last 2 Weeks

Now
84 °F

Passing clouds.


Feels Like: 87 °F
Forecast: 82 / 67 °F
Wind: 15 mph from Southwest

Location: Palma De Mallorca / Son San Juan

Current Time: Jul 14, 2020 at 1:18:18 pm

Latest Report: Jul 14, 2020 at 1:00 pm


Visibility: N/A

Pressure: 30.01 "Hg

Humidity: 55%

Dew Point: 66 °F

Location of PalmaLocation

Past Weather in Palma — Graph

°F

Palma Temperature Yesterday

Maximum temperature yesterday: 90 °F (at 1:30 pm)
Minimum temperature yesterday: 72 °F (at 5:00 am)
Average temperature yesterday: 81 °F

High & Low Weather Summary for the Past Weeks

 TemperatureHumidityPressure
High97 °F (Jun 30, 3:00 pm)94% (Jun 30, 1:00 am)30.18 "Hg (Jun 30, 1:00 am)
Low63 °F (Jul 5, 6:30 am)29% (Jul 14, 11:30 am)29.83 "Hg (Jul 1, 3:30 am)
Average79 °F66%30.01 "Hg
* Reported Jun 29 12:00 pm — Jul 14 12:00 pm, Palma. Weather by CustomWeather, © 2020

Note: Actual official high and low records may vary slightly from our data, if they occured in-between our weather recording intervals... More about our weather records

Palma Weather History for the Previous 24 Hours

Scroll right to see more
 ConditionsComfort  
Time TempWeatherWind HumidityBarometerVisibility
12:00 pm
Tue, Jul 14
90 °FPassing clouds.8 mph29%30.01 "HgN/A
11:30 am90 °FPassing clouds.8 mph29%30.01 "HgN/A
11:00 am88 °FPassing clouds.7 mph33%30.01 "HgN/A
10:30 am86 °FPassing clouds.7 mph35%30.01 "HgN/A
10:00 am84 °FPassing clouds.5 mph45%30.01 "HgN/A
9:30 am81 °FPassing clouds.3 mph54%30.01 "HgN/A
9:00 am79 °FSunny.2 mph61%30.01 "Hg10 mi
8:30 am75 °FSunny.2 mph69%30.01 "Hg10 mi
8:00 am73 °FSunny.2 mph78%30.01 "Hg10 mi
7:30 am70 °FPassing clouds.2 mph83%30.01 "HgN/A
7:00 am68 °FPassing clouds.1 mph88%30.01 "HgN/A
6:30 am68 °FPassing clouds.7 mph88%30.01 "HgN/A
6:00 am68 °FPassing clouds.5 mph88%30.01 "HgN/A
5:30 am68 °FPassing clouds.3 mph88%30.01 "HgN/A
5:00 am68 °FPassing clouds.5 mph88%30.01 "HgN/A
4:30 am68 °FPassing clouds.1 mph88%30.01 "HgN/A
4:00 am68 °FPassing clouds.1 mph88%30.01 "HgN/A
3:30 am70 °FPassing clouds.2 mph88%30.01 "HgN/A
2:30 am72 °FPassing clouds.3 mph83%30.04 "HgN/A
2:00 am73 °FPassing clouds.No wind78%30.04 "HgN/A
1:30 am75 °FPassing clouds.1 mph78%30.04 "HgN/A
1:00 am75 °FPassing clouds.2 mph74%30.04 "HgN/A
12:30 am75 °FPassing clouds.5 mph78%30.04 "HgN/A
12:00 am75 °FPassing clouds.8 mph78%30.04 "HgN/A
11:30 pm
Mon, Jul 13
75 °FPassing clouds.5 mph78%30.04 "HgN/A
11:00 pm77 °FPassing clouds.6 mph69%30.04 "HgN/A
10:30 pm79 °FPassing clouds.9 mph65%30.04 "HgN/A
10:00 pm79 °FPassing clouds.8 mph65%30.01 "HgN/A
9:30 pm81 °FPassing clouds.9 mph58%30.01 "HgN/A
9:00 pm82 °FPassing clouds.No wind51%30.01 "HgN/A
8:30 pm82 °FPassing clouds.3 mph62%30.01 "HgN/A
8:00 pm84 °FSunny.2 mph58%30.01 "Hg10 mi
7:30 pm84 °FPassing clouds.7 mph58%29.98 "HgN/A
7:00 pm84 °FSunny.8 mph58%30.01 "Hg10 mi
6:30 pm84 °FPassing clouds.8 mph58%30.01 "HgN/A
6:00 pm84 °FPassing clouds.10 mph58%30.01 "HgN/A
5:30 pm84 °FPassing clouds.8 mph58%30.01 "HgN/A
5:00 pm84 °FPassing clouds.9 mph58%30.01 "HgN/A
4:30 pm86 °FPassing clouds.13 mph59%30.01 "HgN/A
4:00 pm84 °FSunny.12 mph58%30.04 "Hg10 mi
3:30 pm86 °FSunny.12 mph55%30.04 "Hg10 mi
3:00 pm86 °FPassing clouds.10 mph55%30.04 "HgN/A
2:30 pm90 °FPassing clouds.9 mph33%30.04 "HgN/A
2:00 pm90 °FPassing clouds.10 mph36%30.04 "HgN/A
1:30 pm90 °FPassing clouds.13 mph31%30.07 "HgN/A
1:00 pm88 °FPassing clouds.15 mph38%30.07 "HgN/A
Weather by CustomWeather, © 2020

See weather overview